Regional Weather Roundup
Issued by NWS

Home | Current Version | Previous Version | Text Only | Print | Product List | Glossary On
Versions: 1 2 3 4 5 6 7 8 9 10 11 12 13 14 15 16 17 18 19 20 21 22 23 24 25 26 27 28 29 30 31 32 33 34 35 36 37 38 39 40 41 42 43 44 45 46 47 48 49 50
000
ASUS45 KBOU 171407
RWRCO

WEATHER ROUNDUP FOR COLORADO
NATIONAL WEATHER SERVICE DENVER/BOULDER CO
800 AM MDT FRI APR 17 2015

NOTE: "FAIR" INDICATES FEW OR NO CLOUDS BELOW 12000 FEET WITH NO
SIGNIFICANT WEATHER AND/OR OBSTRUCTIONS TO VISIBILITY.

COZ001>005-013-030-031-171500-
...NORTHWEST COLORADO...

CITY           SKY/WX    TMP DP  RH WIND       PRES   REMARKS
CRAIG          CLOUDY    35  32  88 NW3       30.02R
HAYDEN         CLOUDY    34  30  86 S3        30.01R VSB 3/4
MEEKER         PTSUNNY   32  29  88 MISG      29.99S
MOUNT WERNER   NOT AVBL
STEAMBOAT SPGS CLOUDY    34  31  88 SW13      29.97F WCI  25
WALDEN         PTSUNNY   32  27  80 N10       30.03S WCI  24
$$

COZ006>008-011-171500-
...WEST CENTRAL VALLEYS...

CITY           SKY/WX    TMP DP  RH WIND       PRES   REMARKS
GRAND JUNCTION LGT SNOW  32  32 100 E6        30.03R FOG     WCI  26
MONTROSE       FLURRIES  34  30  85 SE8       30.06R WCI  27
EAGLE          LGT SNOW  34  34 100 CALM      29.98F FOG
RIFLE          LGT RAIN  37  35  92 W8        29.98S
DELTA          CLOUDY    34  33  99 NE3       30.05S
NUCLA          LGT SNOW  32  32 100 E5        30.10S WCI  27
$$

COZ017>023-064>068-171500-
...SOUTHWEST COLORADO...

CITY           SKY/WX    TMP DP  RH WIND       PRES   REMARKS
DURANGO        PTSUNNY   32  12  43 NE3       30.05R
CORTEZ         CLOUDY    35  18  49 MISG      30.07R
PAGOSA SPRINGS MOSUNNY   30  14  52 CALM      30.05S
TELLURIDE      LGT SNOW  24  21  88 CALM      30.03S
WOLF CREEK PAS MOSUNNY   10   9  92 SW14      30.01S WCI  -5
$$

COZ009-010-012-014-032>034-037-058>063-171500-
...CENTRAL COLORADO...

CITY           SKY/WX    TMP DP  RH WIND       PRES   REMARKS
ASPEN          SNOW      30  30 100 CALM      29.93S VSB 1/4
BUENA VISTA    SNOW      27  26  95 SE16      29.99R VSB 1/4 WCI  15
COPPER MTN     SNOW      25  19  80 N13G21    29.98F VSB 1/4 WCI  13
BERTHOUD PASS  TSTM      18  10  73 MISG      30.04S VSB<1/4
COTTONWOOD PAS SNOW      28  27  93 E6        29.97R VSB 1/4 WCI  22
GUNNISON       CLOUDY    27  21  80 CALM      30.04R
KREMMLING      LGT SNOW  34  28  80 N7        30.00F WCI  28
LEADVILLE      SNOW      25  24  96 S7        29.94R VSB 1/4 WCI  17
MONARCH PASS   CLOUDY    14  10  85 MISG      30.07S
SALIDA         CLOUDY    30  28  90 SW10G22   30.07S VSB 3/4 WCI  21
SUNLIGHT       SNOW     N/A N/A N/A N5        30.01S VSB 1/2
WILKERSON PASS CLOUDY   N/A N/A N/A E14G24    29.99R
$$

COZ069>075-171500-
...SAN LUIS VALLEY/SANGRE DE CRISTO MOUNTAINS...

CITY           SKY/WX    TMP DP  RH WIND       PRES   REMARKS
ALAMOSA        MOSUNNY   26  19  74 SW9       30.01S WCI  17
LA VETA PASS   MOSUNNY   19  14  79 MISG      29.97R
SAGUACHE       LGT SNOW  28  27  93 CALM      30.03R
$$

COZ035-036-038>040-171500-
...NORTHERN COLORADO FRONT RANGE...

CITY           SKY/WX    TMP DP  RH WIND       PRES   REMARKS
DENVER INTL AP FOG       35  35 100 CALM      30.00F VSB 1/8
DMNS CITY PARK   N/A     38  37  99 N6G20     30.00F
AURORA         FOG       34  34 100 N3        30.01F VSB 1/4
FRONT RANGE AP FOG       37  36  93 CALM      30.02F VSB 1/4
ERIE MUNI ARPT DRIZZLE   38  38 100 N15       30.02F
BOULDER MUN AP RAIN      37  37 100 N14G20    30.02F
CENTENNIAL     FOG       34  34 100 CALM      30.00F VSB 1/4
BROOMFIELD     RAIN      37  37 100 N15       30.01F VSB 1/16
FORT COLLINS   CLOUDY    37  37 100 NW14      30.07S
LONGMONT       DRIZZLE   42  39  91 N16G23    30.05F
$$

COZ041-046-047-076>085-087-088-171500-
...PIKES PEAK/PALMER DIVIDE AND SOUTHERN FOOTHILLS...

CITY           SKY/WX    TMP DP  RH WIND       PRES   REMARKS
COLO. SPRINGS  TSTM      37  36  96 NE18      29.96F
A. F. ACADEMY  FLURRIES  32  32 100 N12       29.98R WCI  23
ELLICOTT       LGT RAIN N/A N/A N/A E18G26    29.94S VSB 1/4
FALCON         LGT RAIN  35  34  98 NE10      29.99R WCI  27
FORT CARSON    HAIL      36  35  98 NW10      29.93F
LIMON          CLOUDY    44  43  96 E16       29.98F FOG
MONUMENT HILL  LGT SNOW  32  32 100 N3        29.98F VSB 3/4
TRINIDAD       MOSUNNY   36  34  92 SW3       29.98S
$$

COZ042>045-048>051-090-091-171500-
...NORTHEAST COLORADO...

CITY           SKY/WX    TMP DP  RH WIND       PRES   REMARKS
GREELEY ARPT   CLOUDY    43  37  81 NE14      30.04F
AKRON          LGT RAIN  46  46 100 E10       30.01F VSB 3/4
BURLINGTON     CLOUDY    49  48  97 SE10      30.00S
WRAY           CLOUDY   N/A N/A N/A E12       30.03R FOG
STERLING       DRIZZLE   46  46 100 NE9       30.01F
HOLYOKE        CLOUDY    54  52  94 E16       30.04R FOG
FORT MORGAN    CLOUDY    46  46  97 E9        30.03S
$$

COZ086-089-092>099-171500-
...SOUTHEAST COLORADO...

CITY           SKY/WX    TMP DP  RH WIND       PRES   REMARKS
PUEBLO         LGT RAIN  39  37  92 S15       29.97R
LA JUNTA       CLOUDY    45  42  89 SW16      29.97R
LAMAR          CLOUDY    52  51  97 SE14      29.94F FOG
SPRINGFIELD      N/A     48  48 100 S14       29.98R
$$



USA.gov is the U.S. government's official web portal to all federal, state and local government web resources and services.